CFGD3U LKPR-LZIB

Flight info

Callsign CFGD3U
Flight time 0h 37m
Altitude 25000
Route VOZ DCT LIKSA DCT PEPIK DCT BERVA
Aircraft A21N/M-SDE2E3FGHIRWXY/LB1

Departure

Time 2026-05-04 17:10
Airport Václav Havel Airport Prague (LKPR)

Arrival

Time 2026-05-04 17:48
Airport M. R. Štefánik Airport (LZIB)
Time Latitude Longitude Altitude Speed Heading
2026-05-04 16:49 50.10689 14.26434 1184 ft 0 kts 217°
2026-05-04 17:01 50.10698 14.26446 1183 ft 0 kts 241°
2026-05-04 17:02 50.10701 14.26470 1183 ft 2 kts 276°
2026-05-04 17:02 50.10697 14.26519 1183 ft 0 kts 276°
2026-05-04 17:04 50.10701 14.26503 1183 ft 9 kts 292°
2026-05-04 17:04 50.10796 14.26237 1176 ft 4 kts 231°
2026-05-04 17:05 50.10653 14.26093 1184 ft 18 kts 214°
2026-05-04 17:05 50.10460 14.26060 1194 ft 18 kts 126°
2026-05-04 17:06 50.10275 14.26446 1199 ft 28 kts 126°
2026-05-04 17:06 50.10167 14.26670 1206 ft 24 kts 127°
2026-05-04 17:07 50.09980 14.27053 1212 ft 21 kts 127°
2026-05-04 17:07 50.09923 14.27173 1214 ft 21 kts 127°
2026-05-04 17:07 50.09800 14.27395 1215 ft 20 kts 135°
2026-05-04 17:07 50.09703 14.27546 1218 ft 23 kts 135°
2026-05-04 17:08 50.09590 14.27715 1226 ft 21 kts 135°
2026-05-04 17:08 50.09401 14.28009 1248 ft 18 kts 135°
2026-05-04 17:08 50.09312 14.28146 1241 ft 18 kts 135°
2026-05-04 17:09 50.09169 14.28283 1252 ft 21 kts 193°
2026-05-04 17:09 50.09089 14.28117 1250 ft 19 kts 273°
2026-05-04 17:09 50.09217 14.27797 1250 ft 58 kts 311°
2026-05-04 17:10 50.10368 14.25436 1451 ft 188 kts 308°
2026-05-04 17:10 50.12999 14.19999 3283 ft 246 kts 306°
2026-05-04 17:11 50.14042 14.17830 3999 ft 252 kts 306°
2026-05-04 17:11 50.15111 14.15609 4660 ft 263 kts 306°
2026-05-04 17:11 50.17346 14.10961 5004 ft 271 kts 306°
2026-05-04 17:12 50.18427 14.08524 5582 ft 274 kts 297°
2026-05-04 17:12 50.19136 14.03042 6688 ft 263 kts 256°
2026-05-04 17:13 50.14984 13.98266 9629 ft 274 kts 178°
2026-05-04 17:14 50.10147 14.03442 12365 ft 298 kts 139°
2026-05-04 17:14 50.08697 14.05719 13290 ft 302 kts 139°
2026-05-04 17:14 50.05667 14.10362 14964 ft 310 kts 140°
2026-05-04 17:15 50.04104 14.12717 15590 ft 314 kts 140°
2026-05-04 17:15 50.00931 14.17466 15939 ft 318 kts 140°
2026-05-04 17:16 49.97733 14.22229 16039 ft 319 kts 140°
2026-05-04 17:16 49.92862 14.29453 18364 ft 328 kts 139°
2026-05-04 17:17 49.91203 14.31909 19076 ft 331 kts 139°
2026-05-04 17:17 49.86096 14.39451 21158 ft 343 kts 140°
2026-05-04 17:18 49.84372 14.41994 21831 ft 346 kts 140°
2026-05-04 17:18 49.80838 14.47195 23128 ft 354 kts 140°
2026-05-04 17:19 49.77223 14.52504 24208 ft 362 kts 140°
2026-05-04 17:19 49.73528 14.57920 24915 ft 368 kts 140°
2026-05-04 17:20 49.69835 14.63323 24961 ft 367 kts 140°
2026-05-04 17:20 49.66117 14.68750 24950 ft 367 kts 140°
2026-05-04 17:20 49.64260 14.71456 24953 ft 367 kts 140°
2026-05-04 17:21 49.60567 14.76827 24954 ft 367 kts 140°
2026-05-04 17:21 49.56847 14.82225 24954 ft 367 kts 140°
2026-05-04 17:22 49.54987 14.84921 24946 ft 367 kts 140°
2026-05-04 17:22 49.53101 14.87564 24945 ft 367 kts 139°
2026-05-04 17:23 49.49646 14.96650 24956 ft 374 kts 115°
2026-05-04 17:23 49.48640 15.00344 24954 ft 375 kts 115°
2026-05-04 17:23 49.46551 15.07664 24955 ft 374 kts 117°
2026-05-04 17:24 49.45434 15.11287 24955 ft 374 kts 118°
2026-05-04 17:24 49.41943 15.21992 24951 ft 373 kts 119°
2026-05-04 17:25 49.40762 15.25544 24931 ft 373 kts 119°
2026-05-04 17:25 49.38395 15.32656 24945 ft 374 kts 119°
2026-05-04 17:26 49.36034 15.39759 24952 ft 374 kts 118°
2026-05-04 17:26 49.32486 15.50415 24956 ft 374 kts 118°
2026-05-04 17:27 49.30133 15.57460 24952 ft 374 kts 119°
2026-05-04 17:27 49.27757 15.64551 24955 ft 374 kts 119°
2026-05-04 17:28 49.25378 15.71630 24945 ft 374 kts 118°
2026-05-04 17:29 49.21795 15.82255 24955 ft 374 kts 118°
2026-05-04 17:29 49.18202 15.92866 24956 ft 374 kts 119°
2026-05-04 17:30 49.14602 16.03456 24966 ft 374 kts 119°
2026-05-04 17:31 49.12199 16.10497 24964 ft 374 kts 118°
2026-05-04 17:31 49.08604 16.20999 24966 ft 373 kts 119°
2026-05-04 17:32 49.06192 16.28019 24963 ft 373 kts 119°
2026-05-04 17:33 49.02564 16.38544 24957 ft 373 kts 119°
2026-05-04 17:33 49.01356 16.42039 24956 ft 373 kts 119°
2026-05-04 17:34 48.97738 16.52478 24961 ft 373 kts 118°
2026-05-04 17:34 48.96523 16.55973 24961 ft 373 kts 118°
2026-05-04 17:35 48.92873 16.66449 24959 ft 374 kts 119°
2026-05-04 17:35 48.90433 16.73428 24959 ft 373 kts 119°
2026-05-04 17:35 48.89215 16.76903 24958 ft 373 kts 119°
2026-05-04 17:36 48.87992 16.80390 24627 ft 371 kts 119°
2026-05-04 17:36 48.86783 16.83834 24177 ft 369 kts 119°
2026-05-04 17:36 48.85578 16.87260 23762 ft 366 kts 119°
2026-05-04 17:36 48.84375 16.90676 23238 ft 365 kts 119°
2026-05-04 17:37 48.83127 16.94008 22658 ft 364 kts 125°
2026-05-04 17:37 48.81487 16.96975 21759 ft 369 kts 140°
2026-05-04 17:37 48.79486 16.99419 21009 ft 371 kts 146°
2026-05-04 17:37 48.77350 17.01592 20468 ft 368 kts 150°
2026-05-04 17:38 48.75170 17.03590 19942 ft 363 kts 152°
2026-05-04 17:38 48.72989 17.05495 19440 ft 360 kts 153°
2026-05-04 17:38 48.70826 17.07364 18931 ft 355 kts 153°
2026-05-04 17:38 48.68766 17.09157 18618 ft 337 kts 153°
2026-05-04 17:39 48.64920 17.12559 17661 ft 312 kts 153°
2026-05-04 17:39 48.63039 17.14232 16643 ft 317 kts 152°
2026-05-04 17:39 48.61135 17.15930 15767 ft 316 kts 152°
2026-05-04 17:40 48.59252 17.17613 15000 ft 313 kts 152°
2026-05-04 17:40 48.57394 17.19279 14270 ft 309 kts 152°
2026-05-04 17:40 48.55557 17.20925 13616 ft 303 kts 152°
2026-05-04 17:40 48.53765 17.22531 12888 ft 298 kts 152°
2026-05-04 17:41 48.51988 17.24121 12120 ft 295 kts 152°
2026-05-04 17:41 48.50227 17.25693 11391 ft 292 kts 152°
2026-05-04 17:41 48.48485 17.27245 10684 ft 289 kts 152°
2026-05-04 17:41 48.46763 17.28780 10008 ft 287 kts 152°
2026-05-04 17:42 48.45074 17.30284 9265 ft 284 kts 152°
2026-05-04 17:42 48.43377 17.31793 8384 ft 284 kts 152°
2026-05-04 17:42 48.41624 17.33351 7354 ft 291 kts 152°
2026-05-04 17:42 48.39907 17.34876 6454 ft 291 kts 152°
2026-05-04 17:43 48.38173 17.36415 5638 ft 287 kts 152°
2026-05-04 17:43 48.36468 17.37929 4860 ft 282 kts 152°
2026-05-04 17:43 48.34794 17.39416 4066 ft 276 kts 152°
2026-05-04 17:43 48.33141 17.40806 3287 ft 269 kts 162°
2026-05-04 17:44 48.31348 17.40978 2744 ft 257 kts 194°
2026-05-04 17:44 48.29815 17.39838 2519 ft 237 kts 214°
2026-05-04 17:44 48.28621 17.38289 2497 ft 217 kts 221°
2026-05-04 17:44 48.27677 17.36582 2513 ft 204 kts 221°
2026-05-04 17:45 48.26694 17.35171 2506 ft 188 kts 218°
2026-05-04 17:45 48.25783 17.33871 2511 ft 179 kts 218°
2026-05-04 17:45 48.24872 17.32581 2501 ft 181 kts 218°
2026-05-04 17:45 48.23953 17.31276 2467 ft 182 kts 219°
2026-05-04 17:46 48.23058 17.29990 2376 ft 171 kts 219°
2026-05-04 17:46 48.22233 17.28801 2034 ft 161 kts 218°
2026-05-04 17:46 48.21408 17.27668 1581 ft 163 kts 219°
2026-05-04 17:46 48.20636 17.26513 1516 ft 152 kts 219°
2026-05-04 17:47 48.19877 17.25414 1426 ft 154 kts 219°
2026-05-04 17:47 48.19114 17.24280 984 ft 157 kts 220°
2026-05-04 17:47 48.18329 17.23159 613 ft 153 kts 218°
2026-05-04 17:47 48.17579 17.22102 454 ft 140 kts 221°
2026-05-04 17:48 48.16953 17.21197 434 ft 103 kts 224°
2026-05-04 17:48 48.16505 17.20551 447 ft 77 kts 223°
2026-05-04 17:48 48.16215 17.20136 447 ft 47 kts 223°
2026-05-04 17:48 48.16105 17.19919 448 ft 8 kts 306°
2026-05-04 17:49 48.16150 17.19857 448 ft 0 kts 317°
2026-05-04 17:49 48.16151 17.19856 448 ft 1 kts 317°
2026-05-04 17:49 48.16153 17.19854 448 ft 1 kts 317°
2026-05-04 17:49 48.16169 17.19832 448 ft 11 kts 319°
2026-05-04 17:50 48.16255 17.19797 447 ft 16 kts 20°
2026-05-04 17:50 48.16351 17.19909 447 ft 18 kts 41°
2026-05-04 17:50 48.16451 17.20040 447 ft 21 kts 42°
2026-05-04 17:50 48.16572 17.20194 447 ft 24 kts 40°
2026-05-04 17:51 48.16691 17.20340 447 ft 14 kts 26°
2026-05-04 17:51 48.16765 17.20289 447 ft 12 kts 320°
2026-05-04 17:51 48.16828 17.20194 447 ft 14 kts 314°
2026-05-04 17:51 48.16882 17.20170 447 ft 5 kts 18°
2026-05-04 17:52 48.16919 17.20214 447 ft 11 kts 43°
2026-05-04 17:52 48.16953 17.20223 447 ft 4 kts 333°
2026-05-04 17:52 48.16969 17.20204 447 ft 1 kts 317°
2026-05-04 17:52 48.16974 17.20196 447 ft 0 kts 316°